| time (UTC) | temp F | wind direction | speed knots | gust knots | rain 1hr in | rain 24hr in | rain mn in | humidity % | barometer mb |
| 20260504173004 | 51 | 5 | 9.6 | 20.0 | 0.00 | 0.00 | 0.00 | 45 | 1006.3 |
| 20260504171503 | 52 | 325 | 10.4 | 17.4 | 0.00 | 0.00 | 0.00 | 43 | 1006.2 |
| 20260504081526 | 53 | 28 | 5.2 | 16.5 | 0.00 | 0.00 | 0.00 | 58 | 1000.2 |
| 20260504050010 | 57 | 259 | 5.2 | 13.0 | 0.00 | 0.00 | 0.00 | 47 | 999.5 |
| 20260504044518 | 57 | 243 | 7.0 | 13.9 | 0.00 | 0.00 | 0.00 | 47 | 999.6 |
| 20260504043020 | 57 | 263 | 4.3 | 11.3 | 0.00 | 0.00 | 0.00 | 48 | 999.6 |
| 20260504041523 | 56 | 225 | 4.3 | 8.7 | 0.00 | 0.00 | 0.00 | 48 | 999.9 |
| 20260504040007 | 56 | 232 | 4.3 | 7.8 | 0.00 | 0.00 | 0.00 | 48 | 1000.2 |
| 20260504034511 | 57 | 235 | 2.6 | 9.6 | 0.00 | 0.00 | 0.00 | 47 | 1000.5 |
| 20260504033016 | 57 | 254 | 5.2 | 9.6 | 0.00 | 0.00 | 0.00 | 46 | 1000.7 |
| 20260504031526 | 57 | 242 | 4.3 | 11.3 | 0.00 | 0.00 | 0.00 | 45 | 1001.0 |
| 20260504030014 | 58 | 229 | 3.5 | 8.7 | 0.00 | 0.00 | 0.00 | 44 | 1001.2 |
| 20260504024516 | 58 | 219 | 4.3 | 7.8 | 0.00 | 0.00 | 0.00 | 43 | 1001.3 |
| 20260504023019 | 59 | 250 | 3.5 | 7.8 | 0.00 | 0.00 | 0.00 | 41 | 1001.5 |
| 20260504021524 | 60 | 240 | 4.3 | 9.6 | 0.00 | 0.00 | 0.00 | 38 | 1001.6 |
| 20260504020036 | 62 | 233 | 3.5 | 7.8 | 0.00 | 0.00 | 0.00 | 37 | 1001.8 |
| 20260504014518 | 64 | 254 | 2.6 | 7.8 | 0.00 | 0.00 | 0.00 | 34 | 1002.1 |
| 20260504013025 | 65 | 258 | 1.7 | 6.1 | 0.00 | 0.00 | 0.00 | 32 | 1002.4 |
| 20260504011524 | 67 | 281 | 2.6 | 7.8 | 0.00 | 0.00 | 0.00 | 30 | 1002.7 |
| 20260504010026 | 68 | 244 | 3.5 | 11.3 | 0.00 | 0.00 | 0.00 | 28 | 1003.0 |
| 20260504004534 | 69 | 260 | 5.2 | 13.0 | 0.00 | 0.00 | 0.00 | 27 | 1003.3 |
| 20260504003023 | 70 | 284 | 7.0 | 12.2 | 0.00 | 0.00 | 0.00 | 25 | 1003.6 |
| 20260504001534 | 70 | 268 | 5.2 | 15.6 | 0.00 | 0.00 | 0.00 | 25 | 1003.9 |
| 20260504000028 | 71 | 275 | 7.8 | 14.8 | 0.00 | 0.00 | 0.00 | 24 | 1004.1 |
| 20260503234519 | 71 | 300 | 7.8 | 17.4 | 0.00 | 0.00 | 0.00 | 22 | 1004.3 |
| 20260503233023 | 72 | 267 | 5.2 | 20.0 | 0.00 | 0.00 | 0.00 | 22 | 1004.5 |
| 20260503231528 | 72 | 347 | 3.5 | 18.2 | 0.00 | 0.00 | 0.00 | 22 | 1004.7 |
| 20260503230012 | 72 | 265 | 8.7 | 18.2 | 0.00 | 0.00 | 0.00 | 21 | 1004.8 |
| 20260503224522 | 72 | 256 | 9.6 | 16.5 | 0.00 | 0.00 | 0.00 | 22 | 1004.8 |
| 20260503223023 | 72 | 285 | 7.0 | 11.3 | 0.00 | 0.00 | 0.00 | 22 | 1005.0 |
| 20260503221531 | 73 | 22 | 5.2 | 14.8 | 0.00 | 0.00 | 0.00 | 23 | 1005.4 |
| 20260503220027 | 72 | 269 | 7.8 | 13.9 | 0.00 | 0.00 | 0.00 | 23 | 1005.8 |
| 20260503214532 | 73 | 309 | 3.5 | 14.8 | 0.00 | 0.00 | 0.00 | 23 | 1005.9 |
| 20260503213032 | 72 | 304 | 5.2 | 15.6 | 0.00 | 0.00 | 0.00 | 26 | 1006.4 |
| 20260503211526 | 72 | 5 | 2.6 | 16.5 | 0.00 | 0.00 | 0.00 | 25 | 1006.7 |
| 20260503210019 | 72 | 258 | 2.6 | 13.0 | 0.00 | 0.00 | 0.00 | 26 | 1007.0 |
| 20260503204528 | 71 | 59 | 1.7 | 9.6 | 0.00 | 0.00 | 0.00 | 30 | 1007.3 |
| 20260503203025 | 72 | 344 | 2.6 | 8.7 | 0.00 | 0.00 | 0.00 | 29 | 1007.6 |
| 20260503201510 | 72 | 297 | 3.5 | 11.3 | 0.00 | 0.00 | 0.00 | 30 | 1007.9 |
| 20260503200008 | 70 | 9 | 1.7 | 8.7 | 0.00 | 0.00 | 0.00 | 31 | 1008.3 |
| 20260503194504 | 70 | 11 | 2.6 | 7.8 | 0.00 | 0.00 | 0.00 | 28 | 1008.6 |
| 20260503193008 | 70 | 15 | 1.7 | 8.7 | 0.00 | 0.00 | 0.00 | 28 | 1008.8 |
| 20260503191511 | 70 | 13 | 2.6 | 9.6 | 0.00 | 0.00 | 0.00 | 26 | 1009.1 |
| 20260503190014 | 70 | 265 | 1.7 | 13.0 | 0.00 | 0.00 | 0.00 | 32 | 1009.2 |
| 20260503184507 | 69 | 28 | 2.6 | 12.2 | 0.00 | 0.00 | 0.00 | 30 | 1009.4 |
| 20260503183011 | 70 | 316 | 1.7 | 9.6 | 0.00 | 0.00 | 0.00 | 35 | 1009.7 |
| 20260503181534 | 69 | 360 | 4.3 | 10.4 | 0.00 | 0.00 | 0.00 | 29 | 1010.0 |
| 20260503180027 | 68 | 17 | 4.3 | 12.2 | 0.00 | 0.00 | 0.00 | 30 | 1010.3 |
| 20260503174504 | 67 | 33 | 2.6 | 9.6 | 0.00 | 0.00 | 0.00 | 35 | 1010.7 |